| time (UTC) | temp F | wind direction | speed MPH | gust MPH | rain 1hr in | rain 24hr in | rain mn in | humidity % | barometer mb |
| 20260504110536 | 70 | 0.0 | 1.0 | 0.00 | 0.00 | 0.00 | 56 | 1017.8 | |
| 20260504100536 | 70 | 0.0 | 2.0 | 0.00 | 0.00 | 0.00 | 55 | 1017.9 | |
| 20260504081516 | 67 | 0.0 | 2.0 | 0.00 | 0.00 | 0.00 | 59 | 1018.6 | |
| 20260504080516 | 66 | 90 | 1.0 | 4.0 | 0.00 | 0.00 | 0.00 | 59 | 1018.7 |
| 20260504050515 | 50 | 0.0 | 0.0 | 0.00 | 0.00 | 0.00 | 83 | 1018.2 | |
| 20260504045516 | 49 | 0.0 | 0.0 | 0.00 | 0.00 | 0.00 | 84 | 1018.1 | |
| 20260504044515 | 49 | 0.0 | 0.0 | 0.00 | 0.00 | 0.00 | 83 | 1018.1 | |
| 20260504043516 | 49 | 0.0 | 0.0 | 0.00 | 0.00 | 0.00 | 83 | 1018.1 | |
| 20260504042515 | 49 | 0.0 | 0.0 | 0.00 | 0.00 | 0.00 | 83 | 1018.1 | |
| 20260504041515 | 49 | 0.0 | 0.0 | 0.00 | 0.00 | 0.00 | 82 | 1018.0 | |
| 20260504040535 | 50 | 0.0 | 0.0 | 0.00 | 0.00 | 0.00 | 82 | 1018.2 | |
| 20260504035556 | 50 | 0.0 | 0.0 | 0.00 | 0.00 | 0.00 | 82 | 1018.3 | |
| 20260504034535 | 51 | 0.0 | 0.0 | 0.00 | 0.00 | 0.00 | 82 | 1018.4 | |
| 20260504033517 | 51 | 0.0 | 0.0 | 0.00 | 0.00 | 0.00 | 82 | 1018.6 | |
| 20260504032515 | 51 | 0.0 | 0.0 | 0.00 | 0.00 | 0.00 | 82 | 1018.5 | |
| 20260504031516 | 51 | 0.0 | 0.0 | 0.00 | 0.00 | 0.00 | 81 | 1018.4 | |
| 20260504030556 | 51 | 0.0 | 0.0 | 0.00 | 0.00 | 0.00 | 81 | 1018.5 | |
| 20260504025515 | 51 | 0.0 | 0.0 | 0.00 | 0.00 | 0.00 | 81 | 1018.6 | |
| 20260504024515 | 51 | 0.0 | 0.0 | 0.00 | 0.00 | 0.00 | 80 | 1018.6 | |
| 20260504023516 | 51 | 0.0 | 0.0 | 0.00 | 0.00 | 0.00 | 80 | 1018.6 | |
| 20260504022515 | 52 | 0.0 | 0.0 | 0.00 | 0.00 | 0.00 | 80 | 1018.6 | |
| 20260504021515 | 52 | 0.0 | 0.0 | 0.00 | 0.00 | 0.00 | 79 | 1018.6 | |
| 20260504020515 | 52 | 0.0 | 0.0 | 0.00 | 0.00 | 0.00 | 78 | 1018.6 | |
| 20260504015515 | 53 | 0.0 | 0.0 | 0.00 | 0.00 | 0.00 | 78 | 1018.6 | |
| 20260504014515 | 53 | 0.0 | 0.0 | 0.00 | 0.00 | 0.00 | 77 | 1018.6 | |
| 20260504013515 | 54 | 0.0 | 0.0 | 0.00 | 0.00 | 0.00 | 77 | 1018.6 | |
| 20260504012516 | 54 | 0.0 | 0.0 | 0.00 | 0.00 | 0.00 | 76 | 1018.7 | |
| 20260504011557 | 55 | 0.0 | 0.0 | 0.00 | 0.00 | 0.00 | 75 | 1018.7 | |
| 20260504010517 | 55 | 0.0 | 0.0 | 0.00 | 0.00 | 0.00 | 75 | 1018.6 | |
| 20260504005518 | 55 | 0.0 | 0.0 | 0.00 | 0.00 | 0.00 | 75 | 1018.5 | |
| 20260504004517 | 56 | 0.0 | 0.0 | 0.00 | 0.00 | 0.00 | 76 | 1018.5 | |
| 20260504003517 | 56 | 0.0 | 0.0 | 0.00 | 0.00 | 0.00 | 76 | 1018.6 | |
| 20260504002517 | 56 | 0.0 | 0.0 | 0.00 | 0.00 | 0.00 | 75 | 1018.7 | |
| 20260504001538 | 57 | 0.0 | 0.0 | 0.00 | 0.00 | 0.00 | 75 | 1018.8 | |
| 20260504000517 | 57 | 0.0 | 0.0 | 0.00 | 0.00 | 0.00 | 74 | 1018.9 | |
| 20260503235517 | 57 | 0.0 | 0.0 | 0.00 | 0.00 | 0.00 | 74 | 1018.9 | |
| 20260503234517 | 57 | 0.0 | 0.0 | 0.00 | 0.00 | 0.00 | 73 | 1019.1 | |
| 20260503233517 | 57 | 0.0 | 0.0 | 0.00 | 0.00 | 0.00 | 72 | 1018.9 | |
| 20260503232517 | 57 | 0.0 | 0.0 | 0.00 | 0.00 | 0.00 | 71 | 1019.0 | |
| 20260503231517 | 58 | 0.0 | 0.0 | 0.00 | 0.00 | 0.00 | 70 | 1019.1 | |
| 20260503230517 | 58 | 0.0 | 0.0 | 0.00 | 0.00 | 0.00 | 71 | 1019.4 | |
| 20260503225517 | 58 | 0.0 | 0.0 | 0.00 | 0.00 | 0.00 | 71 | 1019.3 | |
| 20260503224517 | 58 | 0.0 | 1.0 | 0.00 | 0.00 | 0.00 | 70 | 1019.4 | |
| 20260503223517 | 58 | 0.0 | 0.0 | 0.00 | 0.00 | 0.00 | 70 | 1019.3 | |
| 20260503222517 | 58 | 0.0 | 2.0 | 0.00 | 0.00 | 0.00 | 69 | 1019.2 | |
| 20260503221518 | 58 | 0.0 | 1.0 | 0.00 | 0.00 | 0.00 | 68 | 1019.2 | |
| 20260503220517 | 59 | 0.0 | 1.0 | 0.00 | 0.00 | 0.00 | 68 | 1019.1 | |
| 20260503215517 | 59 | 0.0 | 2.0 | 0.00 | 0.00 | 0.00 | 68 | 1019.1 | |
| 20260503214517 | 59 | 0.0 | 2.0 | 0.00 | 0.00 | 0.00 | 67 | 1019.2 | |
| 20260503213517 | 59 | 68 | 1.0 | 3.0 | 0.00 | 0.00 | 0.00 | 66 | 1019.2 |
| 20260503212517 | 59 | 0.0 | 0.0 | 0.00 | 0.00 | 0.00 | 65 | 1019.0 | |
| 20260503211518 | 59 | 0.0 | 0.0 | 0.00 | 0.00 | 0.00 | 63 | 1019.0 | |
| 20260503210517 | 59 | 0.0 | 0.0 | 0.00 | 0.00 | 0.00 | 62 | 1018.8 | |
| 20260503205517 | 59 | 0.0 | 0.0 | 0.00 | 0.00 | 0.00 | 61 | 1018.8 | |
| 20260503204517 | 59 | 0.0 | 0.0 | 0.00 | 0.00 | 0.00 | 59 | 1018.7 | |
| 20260503203517 | 59 | 0.0 | 0.0 | 0.00 | 0.00 | 0.00 | 59 | 1018.6 | |
| 20260503202517 | 59 | 0.0 | 0.0 | 0.00 | 0.00 | 0.00 | 59 | 1018.6 | |
| 20260503201517 | 60 | 0.0 | 0.0 | 0.00 | 0.00 | 0.00 | 57 | 1018.6 | |
| 20260503200517 | 60 | 0.0 | 0.0 | 0.00 | 0.00 | 0.00 | 57 | 1018.6 | |
| 20260503195518 | 60 | 0.0 | 1.0 | 0.00 | 0.00 | 0.00 | 58 | 1018.4 | |
| 20260503194517 | 60 | 0.0 | 0.0 | 0.00 | 0.00 | 0.00 | 58 | 1018.3 | |
| 20260503193517 | 61 | 0.0 | 0.0 | 0.00 | 0.00 | 0.00 | 57 | 1018.1 | |
| 20260503192517 | 61 | 0.0 | 0.0 | 0.00 | 0.00 | 0.00 | 56 | 1018.0 | |
| 20260503191638 | 61 | 0.0 | 1.0 | 0.00 | 0.00 | 0.00 | 55 | 1017.9 | |
| 20260503190517 | 62 | 0.0 | 1.0 | 0.00 | 0.00 | 0.00 | 55 | 1017.5 | |
| 20260503185517 | 62 | 0.0 | 1.0 | 0.00 | 0.00 | 0.00 | 53 | 1017.8 | |
| 20260503184517 | 63 | 0.0 | 1.0 | 0.00 | 0.00 | 0.00 | 53 | 1017.7 | |
| 20260503183516 | 63 | 0.0 | 1.0 | 0.00 | 0.00 | 0.00 | 53 | 1017.6 | |
| 20260503182517 | 63 | 0.0 | 1.0 | 0.00 | 0.00 | 0.00 | 51 | 1017.2 | |
| 20260503181536 | 64 | 0.0 | 2.0 | 0.00 | 0.00 | 0.00 | 52 | 1017.3 | |
| 20260503180516 | 64 | 0.0 | 2.0 | 0.00 | 0.00 | 0.00 | 53 | 1017.2 | |
| 20260503175517 | 64 | 270 | 1.0 | 3.0 | 0.00 | 0.00 | 0.00 | 52 | 1017.0 |
| 20260503174517 | 64 | 90 | 1.0 | 3.0 | 0.00 | 0.00 | 0.00 | 53 | 1017.0 |
| 20260503173516 | 65 | 180 | 1.0 | 3.0 | 0.00 | 0.00 | 0.00 | 55 | 1017.0 |
| 20260503172517 | 64 | 225 | 1.0 | 3.0 | 0.00 | 0.00 | 0.00 | 57 | 1016.7 |
| 20260503171537 | 64 | 0.0 | 0.0 | 0.00 | 0.00 | 0.00 | 78 | 1016.5 | |
| 20260503170517 | 65 | 0.0 | 0.0 | 0.00 | 0.00 | 0.00 | 78 | 1016.4 | |
| 20260503150517 | 75 | 0.0 | 0.0 | 0.00 | 0.00 | 0.00 | 43 | 1016.3 | |
| 20260503130516 | 76 | 90 | 1.0 | 4.0 | 0.00 | 0.00 | 0.00 | 40 | 1017.2 |